This is the latest recevied weather packets stored in our database for station/object KD2RHT-13. If no packets are shown the sender has not sent any weather packets the latest 1 day(s).
| Time | Temp. | Humidity | Pressure | Rain* | Wind** | Luminosity | Snow |
|---|---|---|---|---|---|---|---|
| 1778098573 | 7.78° C | 99% | 1011.1 hPa | 0 mm | - | 87 W/m² | - |
| 1778097966 | 7.78° C | 99% | 1010.7 hPa | 0 mm | - | 114 W/m² | - |
| 1778097359 | 7.78° C | 99% | 1011.1 hPa | 0 mm | - | 136 W/m² | - |
| 1778095541 | 7.78° C | 99% | 1011.1 hPa | 0 mm | - | 71 W/m² | - |
| 1778095237 | 7.78° C | 99% | 1010.7 hPa | 0 mm | - | 73 W/m² | - |
| 1778094934 | 7.78° C | 99% | 1010.7 hPa | 0 mm | - | 131 W/m² | - |
| 1778093115 | 7.78° C | 99% | 1010.7 hPa | 0 mm | - | 72 W/m² | - |
| 1778092205 | 7.78° C | 99% | 1010.4 hPa | 0 mm | - | 56 W/m² | - |
| 1778090994 | 7.78° C | 99% | 1010 hPa | 0 mm | - | 65 W/m² | - |
| 1778090690 | 7.78° C | 99% | 1010 hPa | 0 mm | - | 106 W/m² | - |
| 1778090387 | 7.78° C | 99% | 1010 hPa | 0 mm | - | 141 W/m² | - |
| 1778089780 | 7.78° C | 99% | 1010 hPa | 0 mm | - | 103 W/m² | - |
| 1778087352 | 8.89° C | 99% | 1009.7 hPa | 0 mm | - | 161 W/m² | - |
| 1778087048 | 8.89° C | 99% | 1009.4 hPa | 0 mm | - | 169 W/m² | - |
| 1778086445 | 8.33° C | 99% | 1009.7 hPa | 0 mm | - | 149 W/m² | - |
| 1778085536 | 8.33° C | 99% | 1009.7 hPa | 0 mm | - | 144 W/m² | - |
| 1778084925 | 8.33° C | 99% | 1009.7 hPa | 0 mm | - | 209 W/m² | - |
| 1778083412 | 7.78° C | 99% | 1010 hPa | 0 mm | - | 105 W/m² | - |
| 1778081679 | 7.22° C | 99% | 1010.4 hPa | 1.27 mm | - | 64 W/m² | - |
| 1778081073 | 7.22° C | 99% | 1010.4 hPa | 0 mm | - | 88 W/m² | - |
| 1778080772 | 7.22° C | 99% | 1010 hPa | 0 mm | - | 62 W/m² | - |
| 1778080166 | 7.22° C | 99% | 1009.7 hPa | 1.78 mm | - | 55 W/m² | - |
| 1778079255 | 7.78° C | 99% | 1009.7 hPa | 0 mm | - | 70 W/m² | - |
| 1778078953 | 7.22° C | 99% | 1009.7 hPa | 1.78 mm | - | 72 W/m² | - |
| 1778078649 | 7.22° C | 99% | 1009.7 hPa | 1.78 mm | - | 81 W/m² | - |
* Rain latest hour (hover to see other rain measurements)
** Current wind speed in m/s (hover to see current wind gust speed)